Location: Ku?niki
(51.4449°N, 17.8974°E)
Time: 11:27:47
(UTC+00:00)

Cosmos 2297 Rocket - Pass Details

Date: 18 September 2020
Orbit: 838 x 845 km, 71.0° (Epoch: 30 October)

Event Time Altitude Azimuth Distance (km) Brightness Sun altitude
Rises 22:38:27 0° 330° (NNW) 3,413 6.1 -37.1°
Reaches altitude 10° 22:41:34 10° 346° (NNW) 2,477 5.3 -37.2°
Maximum altitude 22:45:47 21° 34° (NE) 1,830 4.4 -37.1°
Enters shadow 22:47:18 19° 55° (NE) 1,926 4.3 -37.1°
